KK6LVQ-13 Weather Reports


time (UTC)temp
C
wind
direction
speed
KPH
gust
KPH
rain 1hr
cm
rain 24hr
cm
rain mn
cm
humidity
%
barometer
mb
20260507082433 10 307 3.2 3.2 0.00 0.00 0.00 98 1024.4
20260507081930 10 34 0.0 0.0 0.00 0.00 0.00 98 1024.6
20260507081426 10 350 0.0 1.6 0.00 0.00 0.00 98 1024.4
20260507080923 10 51 3.2 3.2 0.00 0.00 0.00 98 1024.5
20260507080419 10 336 3.2 3.2 0.00 0.00 0.00 98 1024.7
20260507075914 10 315 1.6 3.2 0.00 0.00 0.00 98 1024.4
20260507075411 10 7 0.0 0.0 0.00 0.00 0.00 98 1024.5
20260507074908 10 300 4.8 4.8 0.00 0.00 0.00 98 1024.4
20260507074405 10 4 0.0 1.6 0.00 0.00 0.00 98 1024.4
20260507073903 10 356 0.0 0.0 0.00 0.00 0.00 98 1024.3
20260507073359 11 23 0.0 0.0 0.00 0.00 0.00 98 1024.6
20260507072856 11 6 0.0 1.6 0.00 0.00 0.00 98 1024.5
20260507072353 11 357 1.6 1.6 0.00 0.00 0.00 98 1024.5
20260507071851 11 38 0.0 0.0 0.00 0.00 0.00 98 1024.5
20260507071348 11 32 1.6 3.2 0.00 0.00 0.00 98 1024.5
20260507070843 11 355 1.6 1.6 0.00 0.00 0.00 98 1024.6
20260507070342 11 331 1.6 3.2 0.00 0.00 0.00 98 1024.5
20260507065838 11 350 0.0 0.0 0.00 0.00 0.00 98 1024.8
20260507065335 11 339 1.6 3.2 0.00 0.00 0.00 98 1024.6
20260507064832 11 13 1.6 1.6 0.00 0.00 0.00 98 1024.5
20260507064330 11 332 3.2 3.2 0.00 0.00 0.00 98 1024.6
20260507063828 11 309 1.6 1.6 0.00 0.00 0.00 98 1024.5
20260507063324 11 23 1.6 1.6 0.00 0.00 0.00 98 1024.5
20260507062821 11 339 3.2 3.2 0.00 0.00 0.00 98 1024.5
20260507062318 11 284 0.0 1.6 0.00 0.00 0.00 98 1024.4
20260507061816 11 319 0.0 0.0 0.00 0.00 0.00 98 1024.6
20260507061314 11 115 0.0 0.0 0.00 0.00 0.00 97 1024.7
20260507060812 11 7 0.0 0.0 0.00 0.00 0.00 97 1024.5
20260507060309 11 206 0.0 0.0 0.00 0.00 0.00 97 1024.5
20260507055805 11 334 3.2 4.8 0.00 0.00 0.00 97 1024.5
20260507055300 11 9 0.0 0.0 0.00 0.00 0.00 97 1024.4
20260507054756 11 327 1.6 1.6 0.00 0.00 0.00 97 1024.4
20260507054253 11 36 0.0 1.6 0.00 0.00 0.00 97 1024.4
20260507053751 11 280 4.8 4.8 0.00 0.00 0.00 97 1024.5
20260507053248 11 349 3.2 3.2 0.00 0.00 0.00 97 1024.4
20260507052747 11 359 1.6 1.6 0.00 0.00 0.00 97 1024.6
20260507052243 11 355 1.6 3.2 0.00 0.00 0.00 97 1024.6
20260507051741 11 351 0.0 1.6 0.00 0.00 0.00 97 1024.7
20260507051238 11 320 3.2 4.8 0.00 0.00 0.00 97 1024.8
20260507050734 11 351 3.2 3.2 0.00 0.00 0.00 97 1024.5
20260507050232 11 353 1.6 1.6 0.00 0.00 0.00 97 1024.6
20260507045728 11 354 0.0 0.0 0.00 0.00 0.00 97 1024.8
20260507045224 11 6 3.2 3.2 0.00 0.00 0.00 97 1024.6
20260507044722 11 310 3.2 8.0 0.00 0.00 0.00 96 1024.7
20260507044218 11 186 0.0 1.6 0.00 0.00 0.00 96 1024.6
20260507043714 11 33 3.2 4.8 0.00 0.00 0.00 96 1024.5
20260507043211 11 59 0.0 0.0 0.00 0.00 0.00 96 1024.5
20260507042708 11 332 4.8 8.0 0.00 0.00 0.00 96 1024.5
20260507042203 11 3 1.6 1.6 0.00 0.00 0.00 96 1024.7
20260507041700 11 327 4.8 4.8 0.00 0.00 0.00 96 1024.7
20260507041156 11 4 3.2 3.2 0.00 0.00 0.00 96 1024.2
20260507040654 11 339 0.0 1.6 0.00 0.00 0.00 96 1024.4
20260507040150 11 34 0.0 1.6 0.00 0.00 0.00 95 1024.3
20260507035646 11 32 0.0 1.6 0.00 0.00 0.00 95 1024.4
20260507035142 11 353 0.0 0.0 0.00 0.00 0.00 95 1024.0
20260507034639 12 0 8.0 9.7 0.00 0.00 0.00 95 1024.1
20260507034137 12 247 3.2 3.2 0.00 0.00 0.00 95 1023.8
20260507033635 12 335 3.2 3.2 0.00 0.00 0.00 95 1024.1
20260507033132 12 286 1.6 3.2 0.00 0.00 0.00 95 1024.0
20260507032629 12 328 3.2 4.8 0.00 0.00 0.00 94 1023.8
20260507032125 12 0 1.6 1.6 0.00 0.00 0.00 94 1023.8
20260507031622 12 38 3.2 3.2 0.00 0.00 0.00 94 1023.8
20260507031119 12 10 4.8 8.0 0.00 0.00 0.00 94 1023.8
20260507030615 12 305 1.6 1.6 0.00 0.00 0.00 93 1023.7
20260507030113 12 66 0.0 1.6 0.00 0.00 0.00 93 1023.7
20260507025610 12 5 3.2 3.2 0.00 0.00 0.00 93 1023.5
20260507025107 12 332 6.4 8.0 0.00 0.00 0.00 92 1023.6
20260507024605 12 1 1.6 1.6 0.00 0.00 0.00 92 1023.6
20260507024102 13 23 6.4 8.0 0.00 0.00 0.00 91 1023.5
20260507023557 13 16 3.2 3.2 0.00 0.00 0.00 91 1023.4
20260507023055 13 302 4.8 4.8 0.00 0.00 0.00 90 1023.2
20260507022552 13 2 4.8 4.8 0.00 0.00 0.00 90 1023.3
20260507022046 13 16 4.8 8.0 0.00 0.00 0.00 88 1023.4
20260507021543 14 304 3.2 4.8 0.00 0.00 0.00 87 1023.2
20260507021040 14 337 4.8 8.0 0.00 0.00 0.00 86 1023.3
20260507020538 15 345 8.0 11.3 0.00 0.00 0.00 86 1023.2
20260507020034 15 302 8.0 11.3 0.00 0.00 0.00 85 1023.3
20260507015532 15 295 4.8 8.0 0.00 0.00 0.00 84 1023.3
20260507015029 16 347 4.8 4.8 0.00 0.00 0.00 82 1023.3
20260507014526 16 352 3.2 3.2 0.00 0.00 0.00 82 1023.2
20260507014021 16 249 4.8 4.8 0.00 0.00 0.00 81 1023.1
20260507013518 16 302 4.8 8.0 0.00 0.00 0.00 81 1023.1
20260507013016 16 323 6.4 9.7 0.00 0.00 0.00 80 1023.1
20260507012513 16 30 3.2 4.8 0.00 0.00 0.00 79 1023.1
20260507012009 16 326 4.8 4.8 0.00 0.00 0.00 79 1023.3
20260507011506 16 285 6.4 8.0 0.00 0.00 0.00 79 1023.1
20260507011002 16 351 6.4 8.0 0.00 0.00 0.00 79 1023.0
20260507010457 17 348 6.4 11.3 0.00 0.00 0.00 78 1023.2
20260507005954 17 307 8.0 12.9 0.00 0.00 0.00 77 1023.2
20260507005451 17 345 8.0 9.7 0.00 0.00 0.00 77 1022.9
20260507004947 17 299 8.0 11.3 0.00 0.00 0.00 76 1022.9
20260507004444 17 296 4.8 8.0 0.00 0.00 0.00 76 1022.9
20260507003942 17 329 11.3 12.9 0.00 0.00 0.00 75 1022.9
20260507003437 18 310 4.8 8.0 0.00 0.00 0.00 75 1022.7
20260507002932 18 345 4.8 4.8 0.00 0.00 0.00 74 1022.7
20260507002428 18 335 4.8 8.0 0.00 0.00 0.00 74 1022.8
20260507001920 18 319 8.0 11.3 0.00 0.00 0.00 73 1022.6
20260507001417 18 10 4.8 4.8 0.00 0.00 0.00 72 1022.8
20260507000914 19 323 6.4 9.7 0.00 0.00 0.00 71 1022.6
20260507000409 19 241 6.4 9.7 0.00 0.00 0.00 71 1022.7
20260506235905 19 342 9.7 12.9 0.00 0.00 0.00 71 1022.4
20260506235403 20 310 6.4 9.7 0.00 0.00 0.00 70 1022.3
20260506234858 20 306 11.3 12.9 0.00 0.00 0.00 70 1022.4
20260506234356 20 312 8.0 9.7 0.00 0.00 0.00 70 1022.2
20260506233854 20 329 8.0 9.7 0.00 0.00 0.00 69 1022.6
20260506233349 20 340 8.0 9.7 0.00 0.00 0.00 69 1022.4
20260506232846 20 273 6.4 8.0 0.00 0.00 0.00 69 1022.7
20260506232342 20 321 4.8 8.0 0.00 0.00 0.00 68 1022.7
20260506231833 20 313 8.0 9.7 0.00 0.00 0.00 68 1022.4
20260506231331 20 327 6.4 9.7 0.00 0.00 0.00 69 1022.6
20260506230828 20 346 4.8 4.8 0.00 0.00 0.00 69 1022.7
20260506230325 20 311 6.4 8.0 0.00 0.00 0.00 68 1022.6
20260506225821 20 264 9.7 14.5 0.00 0.00 0.00 67 1022.9
20260506225318 20 53 4.8 4.8 0.00 0.00 0.00 67 1022.9
20260506224815 20 295 11.3 12.9 0.00 0.00 0.00 67 1022.8
20260506224312 21 345 6.4 9.7 0.00 0.00 0.00 66 1022.7
20260506223809 21 345 8.0 8.0 0.00 0.00 0.00 66 1022.7
20260506223304 21 339 4.8 8.0 0.00 0.00 0.00 66 1022.9
20260506222801 21 356 12.9 14.5 0.00 0.00 0.00 65 1022.8
20260506222256 21 319 9.7 11.3 0.00 0.00 0.00 65 1022.9
20260506221755 21 341 6.4 11.3 0.00 0.00 0.00 64 1023.1
20260506221252 21 354 6.4 9.7 0.00 0.00 0.00 64 1022.9
20260506220749 22 286 11.3 12.9 0.00 0.00 0.00 63 1022.9
20260506220238 22 296 8.0 9.7 0.00 0.00 0.00 63 1023.0
20260506215736 22 324 9.7 12.9 0.00 0.00 0.00 62 1023.2
20260506215231 22 356 6.4 9.7 0.00 0.00 0.00 62 1023.2
20260506214728 22 340 3.2 3.2 0.00 0.00 0.00 63 1023.0
20260506214225 22 286 6.4 9.7 0.00 0.00 0.00 63 1023.3
20260506213723 22 281 4.8 4.8 0.00 0.00 0.00 62 1023.3
20260506213220 22 354 6.4 8.0 0.00 0.00 0.00 62 1023.2
20260506212717 22 336 8.0 9.7 0.00 0.00 0.00 60 1023.5
20260506212212 22 338 8.0 11.3 0.00 0.00 0.00 62 1023.6
20260506211708 23 346 6.4 8.0 0.00 0.00 0.00 62 1023.4
20260506211205 22 331 1.6 3.2 0.00 0.00 0.00 62 1023.5
20260506210702 22 293 3.2 3.2 0.00 0.00 0.00 60 1023.6
20260506210158 22 289 8.0 9.7 0.00 0.00 0.00 61 1023.7
20260506205656 22 57 6.4 8.0 0.00 0.00 0.00 63 1023.5
20260506205150 22 296 9.7 11.3 0.00 0.00 0.00 62 1023.7
20260506204648 22 290 4.8 4.8 0.00 0.00 0.00 61 1023.7
20260506204145 22 309 6.4 8.0 0.00 0.00 0.00 62 1023.7
20260506203643 22 306 4.8 4.8 0.00 0.00 0.00 62 1023.8
20260506203140 21 239 3.2 3.2 0.00 0.00 0.00 63 1023.9
20260506202638 22 267 6.4 8.0 0.00 0.00 0.00 62 1024.0
20260506202133 23 228 1.6 1.6 0.00 0.00 0.00 55 1023.9
20260506201631 22 18 1.6 1.6 0.00 0.00 0.00 57 1024.0
20260506201127 22 331 3.2 3.2 0.00 0.00 0.00 58 1024.0
20260506200624 22 188 1.6 3.2 0.00 0.00 0.00 56 1024.2
20260506200121 22 259 4.8 4.8 0.00 0.00 0.00 58 1024.1
20260506195617 22 199 0.0 1.6 0.00 0.00 0.00 61 1024.3
20260506195114 21 97 0.0 1.6 0.00 0.00 0.00 61 1024.3
20260506194611 21 284 3.2 3.2 0.00 0.00 0.00 60 1024.4
20260506194107 21 268 3.2 3.2 0.00 0.00 0.00 61 1024.3
20260506193605 21 283 1.6 1.6 0.00 0.00 0.00 59 1024.4
20260506193103 21 120 4.8 4.8 0.00 0.00 0.00 59 1024.5
20260506192559 21 58 1.6 3.2 0.00 0.00 0.00 65 1024.4
20260506192055 20 307 4.8 4.8 0.00 0.00 0.00 64 1024.5
20260506191551 20 149 0.0 0.0 0.00 0.00 0.00 62 1024.5
20260506191047 20 278 1.6 1.6 0.00 0.00 0.00 66 1024.7
20260506190545 20 159 0.0 0.0 0.00 0.00 0.00 67 1024.6
20260506190042 19 16 3.2 3.2 0.00 0.00 0.00 67 1024.6
20260506185539 20 268 4.8 4.8 0.00 0.00 0.00 66 1024.8
20260506185035 19 212 1.6 3.2 0.00 0.00 0.00 67 1024.8
20260506184533 19 83 4.8 4.8 0.00 0.00 0.00 67 1024.9
20260506184030 20 263 4.8 4.8 0.00 0.00 0.00 66 1024.9
20260506183525 20 76 1.6 1.6 0.00 0.00 0.00 64 1024.9
20260506183023 20 52 1.6 1.6 0.00 0.00 0.00 65 1024.8
20260506182520 20 320 0.0 1.6 0.00 0.00 0.00 64 1025.0
20260506182017 19 145 4.8 4.8 0.00 0.00 0.00 66 1025.0
20260506181515 19 359 1.6 1.6 0.00 0.00 0.00 66 1025.1
20260506181012 20 201 1.6 1.6 0.00 0.00 0.00 65 1025.0
20260506180508 20 112 1.6 1.6 0.00 0.00 0.00 65 1025.0
20260506180006 18 133 1.6 1.6 0.00 0.00 0.00 68 1025.0
20260506175502 18 78 3.2 3.2 0.00 0.00 0.00 70 1025.2
20260506174958 19 225 0.0 1.6 0.00 0.00 0.00 68 1025.1
20260506174456 18 93 1.6 3.2 0.00 0.00 0.00 68 1025.3
20260506173952 18 127 0.0 1.6 0.00 0.00 0.00 71 1025.1
20260506173450 17 60 3.2 3.2 0.00 0.00 0.00 73 1025.2
20260506172946 17 137 1.6 1.6 0.00 0.00 0.00 72 1025.0
20260506172444 17 23 1.6 1.6 0.00 0.00 0.00 75 1025.2
20260506171940 17 192 1.6 3.2 0.00 0.00 0.00 73 1025.4
20260506171438 16 140 1.6 1.6 0.00 0.00 0.00 73 1025.3
20260506170936 17 114 0.0 0.0 0.00 0.00 0.00 74 1025.5
20260506170431 17 68 1.6 1.6 0.00 0.00 0.00 75 1025.5
20260506165925 16 83 1.6 1.6 0.00 0.00 0.00 76 1025.4
20260506165423 17 202 1.6 3.2 0.00 0.00 0.00 75 1025.5
20260506164918 16 167 4.8 4.8 0.00 0.00 0.00 75 1025.5
20260506164415 16 114 0.0 0.0 0.00 0.00 0.00 77 1025.4
20260506163914 15 329 1.6 1.6 0.00 0.00 0.00 79 1025.6
20260506163408 16 243 4.8 4.8 0.00 0.00 0.00 78 1025.5
20260506162902 15 341 0.0 0.0 0.00 0.00 0.00 79 1025.5
20260506162400 14 253 1.6 1.6 0.00 0.00 0.00 84 1025.4
20260506161852 14 58 0.0 0.0 0.00 0.00 0.00 84 1025.4
20260506161349 13 293 0.0 0.0 0.00 0.00 0.00 85 1025.6
20260506160842 13 344 0.0 0.0 0.00 0.00 0.00 85 1025.5
20260506160339 13 77 0.0 0.0 0.00 0.00 0.00 86 1025.7
20260506155837 13 76 0.0 0.0 0.00 0.00 0.00 86 1025.8
20260506155333 13 75 0.0 0.0 0.00 0.00 0.00 86 1025.5
20260506153451 12 52 0.0 0.0 0.00 0.00 0.00 90 1025.6
20260506152948 12 48 0.0 0.0 0.00 0.00 0.00 92 1025.5
20260506152445 11 15 0.0 0.0 0.00 0.00 0.00 95 1025.7
20260506151943 11 319 1.6 1.6 0.00 0.00 0.00 96 1025.6
20260506151440 11 74 0.0 0.0 0.00 0.00 0.00 97 1025.6
20260506150938 11 48 0.0 0.0 0.00 0.00 0.00 98 1025.7
20260506150433 10 72 0.0 0.0 0.00 0.00 0.00 98 1025.6
20260506145931 10 94 0.0 0.0 0.00 0.00 0.00 98 1025.6
20260506145427 10 99 0.0 0.0 0.00 0.00 0.00 98 1025.7
20260506144925 10 85 0.0 0.0 0.00 0.00 0.00 99 1025.6
20260506144421 10 109 0.0 0.0 0.00 0.00 0.00 99 1025.7
20260506143920 10 83 0.0 0.0 0.00 0.00 0.00 99 1025.7
20260506143416 10 81 0.0 0.0 0.00 0.00 0.00 99 1025.6
20260506142915 10 109 0.0 0.0 0.00 0.00 0.00 99 1025.8
20260506142412 10 80 0.0 0.0 0.00 0.00 0.00 99 1025.6
20260506141910 10 80 0.0 0.0 0.00 0.00 0.00 99 1025.5
20260506141408 10 80 0.0 0.0 0.00 0.00 0.00 99 1025.5
20260506140906 10 79 0.0 0.0 0.00 0.00 0.00 99 1025.6
20260506140403 10 79 0.0 0.0 0.00 0.00 0.00 99 1025.5
20260506135900 10 79 0.0 0.0 0.00 0.00 0.00 99 1025.3
20260506135356 10 79 0.0 0.0 0.00 0.00 0.00 99 1025.3
20260506134852 10 79 0.0 0.0 0.00 0.00 0.00 99 1025.4
20260506134349 10 79 0.0 0.0 0.00 0.00 0.00 99 1025.1
20260506133846 10 78 0.0 0.0 0.00 0.00 0.00 99 1025.1
20260506133343 10 78 0.0 0.0 0.00 0.00 0.00 99 1025.0
20260506132839 10 78 0.0 0.0 0.00 0.00 0.00 99 1024.9
20260506132336 10 77 0.0 0.0 0.00 0.00 0.00 99 1024.9
20260506131835 10 77 0.0 0.0 0.00 0.00 0.00 99 1024.8
20260506131330 10 77 0.0 0.0 0.00 0.00 0.00 99 1024.9
20260506130828 10 77 0.0 0.0 0.00 0.00 0.00 99 1024.7
20260506130324 10 76 0.0 0.0 0.00 0.00 0.00 99 1024.7
20260506125822 10 76 0.0 0.0 0.00 0.00 0.00 99 1024.7
20260506125320 10 77 0.0 0.0 0.00 0.00 0.00 98 1024.7
20260506124819 10 76 0.0 0.0 0.00 0.00 0.00 98 1024.7
20260506124315 10 75 0.0 0.0 0.00 0.00 0.00 98 1024.7
20260506123813 10 76 0.0 0.0 0.00 0.00 0.00 98 1024.6
20260506123311 10 77 0.0 0.0 0.00 0.00 0.00 98 1024.5
20260506122808 10 77 0.0 0.0 0.00 0.00 0.00 98 1024.7
20260506122306 10 77 0.0 0.0 0.00 0.00 0.00 98 1024.4
20260506121803 10 72 0.0 0.0 0.00 0.00 0.00 98 1024.5
20260506121300 10 72 0.0 0.0 0.00 0.00 0.00 98 1024.4
20260506120757 10 72 0.0 0.0 0.00 0.00 0.00 98 1024.4
20260506120255 10 72 0.0 0.0 0.00 0.00 0.00 98 1024.5
20260506115752 10 82 0.0 0.0 0.00 0.00 0.00 98 1024.6
20260506115250 10 82 0.0 0.0 0.00 0.00 0.00 98 1024.3
20260506114747 10 82 0.0 0.0 0.00 0.00 0.00 98 1024.2
20260506114245 10 82 0.0 0.0 0.00 0.00 0.00 98 1024.3
20260506113743 10 82 0.0 0.0 0.00 0.00 0.00 98 1024.3
20260506113241 10 83 0.0 0.0 0.00 0.00 0.00 98 1024.3
20260506112737 10 82 0.0 0.0 0.00 0.00 0.00 98 1024.0
20260506112234 10 82 0.0 0.0 0.00 0.00 0.00 98 1024.3
20260506111731 10 82 0.0 0.0 0.00 0.00 0.00 97 1024.1
20260506111230 10 83 0.0 0.0 0.00 0.00 0.00 97 1024.0
20260506110726 10 82 0.0 0.0 0.00 0.00 0.00 97 1024.1
20260506110224 11 82 0.0 0.0 0.00 0.00 0.00 97 1024.1
20260506105720 11 83 0.0 0.0 0.00 0.00 0.00 97 1024.0
20260506105218 11 83 0.0 0.0 0.00 0.00 0.00 97 1023.8
20260506104716 11 82 0.0 0.0 0.00 0.00 0.00 97 1023.7
20260506104213 11 83 0.0 0.0 0.00 0.00 0.00 97 1023.9
20260506103710 11 82 0.0 0.0 0.00 0.00 0.00 97 1024.0
20260506103206 11 82 0.0 0.0 0.00 0.00 0.00 97 1024.1
20260506102705 11 82 0.0 0.0 0.00 0.00 0.00 97 1023.9
20260506102203 11 82 0.0 0.0 0.00 0.00 0.00 97 1024.0
20260506101659 11 82 0.0 0.0 0.00 0.00 0.00 97 1024.1
20260506101155 11 83 0.0 0.0 0.00 0.00 0.00 97 1024.0
20260506100654 11 83 0.0 0.0 0.00 0.00 0.00 97 1024.0
20260506100151 11 83 0.0 0.0 0.00 0.00 0.00 97 1024.0
20260506095650 11 60 0.0 0.0 0.00 0.00 0.00 97 1024.1
20260506095146 11 13 0.0 0.0 0.00 0.00 0.00 97 1023.9
20260506094644 11 13 0.0 0.0 0.00 0.00 0.00 96 1023.9
20260506094141 11 69 0.0 0.0 0.00 0.00 0.00 96 1024.1
20260506093640 11 69 0.0 0.0 0.00 0.00 0.00 96 1024.0
20260506093137 11 69 0.0 0.0 0.00 0.00 0.00 96 1024.1
20260506092634 11 69 0.0 0.0 0.00 0.00 0.00 96 1024.1
20260506092131 11 69 0.0 0.0 0.00 0.00 0.00 96 1024.1
20260506091629 11 69 0.0 0.0 0.00 0.00 0.00 96 1023.9
20260506091126 11 69 0.0 0.0 0.00 0.00 0.00 96 1023.8
20260506090625 11 85 0.0 0.0 0.00 0.00 0.00 96 1023.7
20260506090120 11 85 0.0 0.0 0.00 0.00 0.00 96 1023.7
20260506085617 11 103 0.0 0.0 0.00 0.00 0.00 96 1023.7
20260506085114 11 114 0.0 0.0 0.00 0.00 0.00 96 1023.8
20260506084610 11 114 0.0 0.0 0.00 0.00 0.00 96 1023.8
20260506084107 11 79 0.0 0.0 0.00 0.00 0.00 96 1023.7
20260506083604 11 79 0.0 0.0 0.00 0.00 0.00 96 1023.9
20260506083102 11 95 0.0 0.0 0.00 0.00 0.00 96 1023.8